Wind_Speed
33 34 34 34 34 33 33 33 34 35 35 35 35 36 36 36 35 35 35 35 35 35 36 36 36 36 36 36 37 37 38 39 40 40 40 40 41 41 42 42 42 42 43
32 33 34 35 35 35 35 35 35 35 36 37 37 37 38 37 37 36 36 36 36 36 36 36 36 36 36 37 38 38 38 39 39 40 41 40 40 41 41 41 42 42 43
32 33 34 35 35 35 35 35 35 36 37 38 38 38 38 38 38 37 36 36 36 36 37 37 36 36 37 37 37 37 37 38 39 40 40 40 39 40 40 40 41 41 41
32 32 34 35 35 35 35 35 35 35 36 36 36 37 37 37 37 37 37 37 36 36 36 36 36 37 37 38 38 38 38 39 39 40 40 40 40 40 39 39 40 41 42
31 32 32 33 34 34 35 35 35 36 36 36 36 36 36 36 36 37 37 37 38 37 37 37 37 37 37 38 38 39 39 40 40 40 40 40 41 41 41 41 42 42 43
29 30 31 32 33 34 34 34 35 35 35 35 35 35 35 35 36 36 36 37 37 37 37 37 37 37 37 38 39 40 40 40 40 40 40 40 41 41 42 42 42 42 43
29 29 30 31 32 32 33 34 34 34 34 35 35 35 35 35 35 35 35 35 35 35 36 36 37 37 38 38 39 39 39 39 40 40 40 40 40 41 41 42 42 42 43
28 29 30 31 31 32 33 33 34 34 34 35 35 35 35 35 35 35 35 35 35 35 36 36 37 37 38 39 39 39 39 39 39 39 39 40 40 41 42 42 42 42 42
27 28 29 30 31 31 32 32 33 34 34 35 35 35 35 35 35 35 35 35 35 35 36 36 37 37 37 38 38 39 40 40 40 40 40 40 41 41 42 42 42 42 42
27 28 29 29 30 31 31 32 32 33 33 34 34 35 35 36 36 35 35 35 35 36 37 37 38 38 38 39 39 40 40 40 40 41 41 41 41 42 42 42 43 43 43
25 26 27 28 29 30 31 31 32 33 33 33 34 34 35 35 36 36 37 37 37 37 37 38 38 39 39 39 39 39 40 40 40 40 40 40 41 41 42 42 43 44 44
24 26 26 27 28 29 30 31 31 32 33 34 34 35 35 36 36 37 37 38 38 38 38 38 39 39 39 39 39 39 39 40 40 40 40 41 41 42 42 43 44 44 45
25 26 27 27 28 29 29 30 31 32 33 33 34 35 35 36 37 37 38 38 38 39 39 39 39 39 39 39 39 39 40 40 41 41 42 42 42 43 43 44 45 46 47
24 25 26 27 28 28 29 29 30 31 32 33 34 35 35 36 37 37 38 38 38 38 38 39 38 39 39 39 40 40 41 41 41 42 42 43 43 44 45 46 47 47 48
23 25 26 27 28 28 29 30 31 32 32 33 34 34 35 36 36 37 37 37 38 38 38 38 38 39 39 40 41 41 42 42 43 43 43 44 45 45 46 47 48 49 49
24 25 26 27 28 29 29 30 31 32 32 33 33 34 34 35 35 36 36 37 37 38 38 38 39 39 40 41 42 42 43 43 44 44 45 45 46 47 47 48 48 48 48
24 25 26 28 29 30 30 31 32 32 33 33 33 34 35 35 35 36 36 37 38 38 38 39 40 40 41 42 43 44 44 44 44 44 45 46 47 47 47 48 49 49 48
26 27 28 29 30 30 31 31 32 33 33 34 35 36 36 36 36 37 38 38 38 38 39 40 40 41 41 42 43 44 44 44 45 45 45 46 47 47 48 49 49 48 48
29 29 29 30 31 31 32 32 32 33 34 34 35 36 36 37 37 37 38 38 38 39 40 40 41 41 42 42 43 43 44 44 45 45 45 46 47 47 48 48 48 48 48
30 31 31 32 33 34 34 34 34 34 35 35 36 37 37 37 37 37 38 38 38 39 40 41 41 42 42 42 43 43 44 44 44 44 45 45 46 46 46 46 46 46 46
33 33 34 34 35 35 36 36 37 37 37 37 37 37 37 38 38 38 38 39 39 39 40 41 41 42 42 43 43 44 44 43 44 44 44 45 45 45 45 45 45 45 46
36 37 37 37 38 38 38 38 38 38 38 38 38 38 38 39 39 39 39 39 40 40 40 41 41 41 42 43 44 44 44 44 44 44 44 44 44 44 44 45 45 45 45
40 40 41 40 40 40 41 40 40 40 40 39 38 38 39 39 39 40 40 40 41 41 41 41 41 42 42 43 44 44 44 43 43 43 43 43 43 43 43 43 43 43 43
42 42 43 43 42 42 42 42 42 42 41 41 40 40 40 40 40 40 40 41 41 41 41 41 41 41 42 42 42 42 42 43 42 42 42 41 42 42 42 42 42 42 42
43 43 43 43 43 43 43 42 42 42 42 41 41 40 40 40 41 41 41 41 41 41 41 41 41 40 40 40 40 40 41 41 40 40 40 41 41 41 40 41 41 41 42
45 44 44 43 43 43 42 42 42 42 41 41 41 41 41 41 41 41 41 41 41 40 40 39 39 39 39 39 39 39 39 38 39 39 39 40 40 40 40 41 41 41 41
Wind_Direction
239 242 245 247 249 251 253 256 258 258 259 261 263 266 268 270 271 272 272 272 273 275 277 278 279 280 281 282 282 282 283 283 283 283 283 283 283 283 283 283 282 281 280
242 245 247 249 251 253 255 257 260 261 262 263 266 268 269 270 271 273 273 273 274 276 277 278 279 280 281 282 283 283 283 284 284 284 283 283 283 284 284 284 283 282 281
245 246 249 250 253 255 257 258 261 263 264 265 267 269 270 270 271 273 274 274 275 275 276 278 279 280 281 282 283 283 284 284 285 285 285 285 284 283 284 285 285 284 283
247 249 251 253 255 256 258 260 261 263 265 266 268 270 271 271 272 273 274 274 275 276 276 277 278 279 280 281 282 282 283 284 286 285 285 285 285 284 283 283 284 283 283
251 252 254 255 257 258 260 261 262 264 265 267 269 270 271 271 272 274 275 276 277 276 277 278 278 280 281 281 281 283 284 284 285 286 286 285 285 285 284 284 284 283 284
253 254 255 256 257 259 260 261 262 264 265 267 269 270 271 271 272 274 275 276 277 278 278 279 280 281 282 283 282 283 284 284 285 285 285 285 286 286 286 286 285 284 284
255 257 258 258 259 260 261 261 262 264 265 267 269 269 270 272 273 275 276 277 278 279 280 281 282 284 284 284 284 284 284 284 285 285 285 286 287 287 287 287 286 286 285
257 258 259 260 260 261 261 263 263 264 266 267 268 270 271 272 273 274 276 277 278 279 280 282 283 284 285 285 285 285 285 285 286 285 285 286 287 288 288 288 288 287 286
257 259 260 261 261 261 262 263 264 265 267 269 270 270 271 272 273 274 275 277 278 279 281 282 283 285 286 286 286 286 286 286 286 287 287 287 288 288 288 288 288 288 288
259 260 261 262 262 263 263 264 265 267 268 269 270 270 271 271 272 273 275 276 278 279 281 282 283 285 286 287 287 287 287 287 287 287 288 289 290 290 290 289 289 290 290
261 261 262 263 264 264 265 266 267 268 268 269 270 271 271 272 273 274 275 276 278 279 281 283 284 286 287 287 288 288 288 288 288 288 288 290 291 291 291 291 291 292 292
262 262 263 265 266 266 266 267 268 269 269 270 271 271 272 273 273 274 275 277 278 280 281 283 285 286 287 288 288 288 288 288 288 288 288 289 290 290 290 291 292 292 292
265 265 266 267 268 268 268 268 269 270 271 271 272 272 272 273 274 275 276 277 279 280 281 282 284 285 286 287 287 288 288 289 289 289 288 288 289 289 290 290 291 292 291
268 267 267 268 269 270 269 270 271 272 273 273 274 275 275 275 275 276 277 278 279 280 281 281 282 283 285 286 287 288 288 289 289 289 288 288 289 289 290 290 291 291 291
271 270 269 270 271 272 272 272 273 273 274 275 276 277 277 277 277 277 278 279 280 281 281 281 282 282 284 286 287 288 289 289 290 289 289 289 289 290 290 291 292 292 292
273 273 272 273 274 275 275 274 275 275 276 277 277 278 279 279 279 279 279 280 281 281 281 282 282 283 285 286 287 288 289 289 289 289 289 289 289 290 290 291 292 293 293
275 275 275 275 277 277 277 277 276 277 278 278 279 279 280 281 280 281 281 282 282 281 281 282 284 285 287 288 289 289 289 289 289 289 290 290 290 290 291 292 293 293 292
279 279 279 278 279 280 281 280 279 279 279 279 280 280 281 281 281 282 282 282 282 282 283 284 284 286 288 289 290 290 290 289 289 290 290 290 291 291 292 293 293 293 292
282 282 282 282 282 282 282 282 282 281 281 281 281 282 282 282 282 282 283 283 283 283 284 285 286 287 288 290 291 291 291 291 291 290 291 292 292 293 294 294 293 292 292
283 283 283 283 283 283 283 283 283 283 283 283 283 283 283 283 283 283 284 284 285 285 285 286 286 287 288 289 290 290 291 291 292 292 292 293 294 294 295 295 294 293 293
283 283 283 283 283 283 284 284 283 283 283 283 284 284 284 284 283 284 284 285 285 285 285 286 287 287 288 288 289 290 291 291 292 293 293 293 294 295 296 296 295 295 295
284 283 284 283 283 283 283 283 283 283 282 283 284 284 284 284 283 283 283 284 285 286 286 286 287 287 288 288 290 291 291 292 292 293 293 294 294 295 296 296 296 296 296
286 284 284 284 283 282 282 282 282 282 282 282 283 283 284 284 283 283 284 285 286 286 286 286 287 287 288 289 290 291 292 292 292 293 294 294 295 296 297 298 298 298 297
287 285 283 283 282 282 282 281 281 281 281 281 282 283 283 283 283 284 284 284 285 285 285 285 286 287 288 289 290 291 292 292 292 293 294 295 297 298 299 300 300 299 299
288 286 285 283 282 282 282 282 281 281 281 282 282 282 283 283 283 284 284 284 285 285 285 286 286 287 288 288 290 292 293 293 294 295 295 296 298 299 300 301 301 301 301
288 287 286 284 282 281 281 282 281 282 282 282 282 282 282 282 282 282 283 283 284 284 286 286 287 287 288 288 290 292 293 294 294 295 296 297 298 299 300 301 301 302 302
Height
5762 5765 5768 5771 5773 5775 5777 5779 5781 5782 5783 5784 5785 5786 5786 5787 5787 5787 5787 5787 5787 5786 5786 5785 5784 5783 5782 5781 5779 5778 5777 5776 5774 5774 5773 5771 5770 5768 5767 5765 5764 5764 5763
5757 5760 5762 5765 5767 5769 5771 5773 5774 5775 5776 5778 5778 5779 5779 5780 5780 5779 5779 5779 5778 5778 5777 5777 5776 5775 5773 5772 5771 5769 5768 5766 5765 5764 5762 5762 5761 5759 5757 5755 5754 5753 5752
5752 5755 5757 5759 5761 5763 5764 5766 5767 5768 5769 5770 5771 5771 5771 5771 5772 5771 5771 5770 5770 5769 5769 5768 5767 5766 5765 5763 5762 5760 5758 5757 5755 5754 5752 5751 5751 5749 5748 5745 5743 5742 5741
5746 5748 5751 5753 5755 5756 5757 5759 5760 5761 5762 5762 5763 5763 5763 5763 5763 5763 5762 5762 5761 5760 5760 5759 5758 5757 5756 5754 5753 5751 5749 5748 5746 5744 5742 5741 5739 5738 5738 5736 5733 5731 5730
5741 5743 5744 5746 5748 5749 5750 5751 5752 5753 5754 5755 5755 5755 5755 5755 5755 5754 5754 5753 5753 5752 5751 5750 5749 5748 5746 5745 5743 5742 5740 5738 5737 5735 5733 5731 5729 5727 5726 5726 5724 5721 5719
5735 5736 5738 5740 5741 5742 5743 5744 5745 5746 5746 5747 5747 5747 5747 5747 5747 5746 5746 5745 5744 5743 5742 5741 5740 5739 5737 5736 5734 5732 5730 5728 5727 5725 5723 5721 5719 5717 5715 5714 5712 5710 5708
5729 5730 5732 5733 5734 5735 5736 5736 5737 5738 5738 5739 5739 5739 5739 5739 5738 5738 5737 5736 5736 5735 5733 5732 5731 5729 5728 5726 5724 5722 5720 5718 5716 5715 5713 5711 5709 5706 5704 5702 5700 5698 5696
5723 5724 5725 5726 5727 5728 5728 5729 5730 5730 5731 5731 5731 5731 5731 5730 5730 5729 5729 5728 5727 5726 5725 5723 5722 5720 5718 5716 5714 5712 5710 5708 5706 5704 5702 5700 5698 5696 5693 5691 5689 5687 5685
5717 5717 5718 5719 5719 5720 5721 5721 5722 5722 5722 5722 5722 5722 5722 5722 5721 5721 5720 5719 5718 5717 5716 5714 5713 5711 5709 5706 5704 5702 5700 5698 5696 5694 5692 5690 5688 5685 5682 5680 5677 5675 5673
5710 5711 5711 5712 5712 5712 5713 5713 5714 5714 5714 5714 5714 5714 5713 5713 5712 5712 5711 5710 5709 5708 5706 5705 5703 5701 5699 5697 5694 5692 5690 5688 5686 5684 5682 5679 5677 5674 5672 5669 5666 5663 5660
5704 5704 5704 5705 5705 5705 5705 5705 5706 5706 5705 5705 5705 5705 5704 5703 5703 5702 5701 5701 5699 5698 5697 5695 5693 5691 5689 5687 5684 5682 5680 5678 5676 5673 5671 5669 5667 5664 5661 5658 5655 5652 5648
5698 5698 5698 5698 5698 5698 5698 5697 5697 5697 5697 5696 5696 5695 5695 5694 5693 5692 5691 5691 5689 5688 5687 5685 5683 5681 5679 5677 5674 5672 5670 5667 5665 5663 5661 5658 5656 5653 5650 5647 5644 5640 5636
5692 5691 5691 5691 5691 5690 5690 5690 5689 5688 5688 5687 5687 5686 5685 5684 5683 5682 5681 5680 5679 5678 5676 5675 5673 5671 5669 5667 5664 5662 5660 5657 5655 5652 5650 5647 5645 5642 5639 5636 5632 5628 5624
5685 5685 5684 5684 5683 5683 5682 5682 5681 5680 5679 5678 5678 5676 5675 5674 5673 5672 5671 5670 5669 5667 5666 5664 5662 5661 5659 5656 5654 5652 5649 5646 5644 5641 5638 5636 5633 5630 5627 5623 5619 5616 5612
5679 5678 5677 5676 5676 5675 5674 5674 5673 5672 5671 5670 5668 5667 5666 5665 5663 5662 5661 5660 5658 5657 5655 5653 5652 5650 5648 5646 5643 5641 5638 5635 5632 5630 5627 5624 5621 5617 5614 5610 5607 5603 5599
5672 5671 5670 5669 5668 5667 5666 5665 5664 5663 5662 5661 5659 5658 5656 5655 5654 5652 5651 5649 5648 5646 5645 5643 5641 5639 5637 5634 5632 5629 5626 5623 5621 5618 5615 5611 5608 5605 5601 5597 5593 5589 5585
5666 5665 5663 5662 5661 5660 5658 5657 5656 5654 5653 5652 5650 5649 5647 5645 5644 5642 5641 5639 5637 5636 5634 5632 5630 5628 5626 5623 5620 5617 5615 5612 5609 5605 5602 5599 5596 5592 5589 5585 5580 5576 5571
5659 5658 5656 5654 5653 5651 5650 5648 5647 5645 5644 5642 5641 5639 5637 5635 5634 5632 5630 5628 5627 5625 5623 5621 5619 5617 5614 5611 5609 5606 5603 5599 5596 5593 5590 5587 5583 5579 5576 5572 5567 5562 5558
5652 5650 5648 5647 5645 5643 5641 5640 5638 5636 5635 5633 5631 5629 5627 5625 5623 5622 5620 5618 5616 5614 5612 5610 5608 5605 5603 5600 5597 5594 5591 5587 5584 5581 5578 5574 5570 5567 5563 5559 5554 5550 5545
5643 5642 5640 5638 5636 5634 5632 5631 5629 5627 5625 5623 5621 5619 5616 5615 5613 5611 5609 5607 5605 5603 5601 5599 5596 5594 5591 5588 5585 5582 5579 5576 5572 5569 5565 5562 5558 5553 5549 5545 5541 5537 5532
5634 5632 5630 5629 5627 5625 5623 5621 5619 5617 5615 5612 5610 5608 5606 5604 5602 5600 5598 5596 5594 5592 5590 5588 5585 5582 5579 5576 5573 5570 5567 5564 5560 5557 5553 5549 5545 5541 5537 5532 5528 5523 5519
5624 5622 5620 5618 5616 5614 5612 5610 5608 5606 5604 5602 5599 5597 5595 5593 5591 5589 5587 5585 5583 5580 5578 5576 5573 5570 5567 5565 5561 5558 5555 5552 5548 5545 5541 5537 5533 5528 5524 5520 5515 5511 5506
5613 5611 5609 5607 5605 5602 5600 5598 5596 5594 5592 5590 5588 5586 5584 5582 5580 5578 5576 5573 5571 5569 5566 5564 5561 5559 5556 5553 5550 5546 5543 5540 5536 5533 5529 5525 5521 5516 5512 5508 5503 5498 5494
5601 5598 5596 5594 5592 5590 5587 5585 5583 5581 5580 5578 5576 5574 5572 5570 5568 5566 5564 5561 5559 5557 5554 5552 5549 5547 5544 5541 5538 5534 5531 5528 5524 5521 5517 5513 5509 5505 5501 5496 5491 5487 5482
5587 5585 5583 5581 5579 5576 5574 5572 5570 5569 5567 5566 5564 5562 5560 5558 5556 5554 5552 5549 5547 5545 5543 5540 5537 5535 5532 5529 5526 5523 5520 5516 5513 5509 5506 5502 5498 5494 5489 5485 5480 5475 5471
5573 5571 5569 5567 5565 5563 5561 5559 5557 5555 5554 5552 5551 5549 5548 5546 5544 5542 5540 5537 5535 5533 5531 5528 5526 5523 5521 5518 5515 5512 5509 5505 5502 5499 5495 5491 5487 5483 5479 5474 5469 5464 5459